TIANWANG 1B (TW-1B)
1 40927U 15051C   19183.38099830  .00007185  00000-0  11130-3 0  9996
2 40927  97.1378 228.8801 0007246 346.3446  69.8407 15.54311778212143
TIANWANG 1A (TW-1A)
1 40928U 15051D   19183.53365797  .00002155  00000-0  54455-4 0  9992
2 40928  97.1445 214.5319 0012069  31.8697 126.1848 15.40818511211303
LAPAN A2
1 40931U 15052B   19182.85766821 +.00000674 +00000-0 +47501-5 0  9993
2 40931 006.0035 322.8096 0013203 340.5453 019.4071 14.76608994203210
LQSAT
1 40958U 15057A   19183.14902885  .00000001  00000-0  77874-5 0  9992
2 40958  97.8981 251.9822 0017821 193.8369 166.2353 14.73082528200780
CHUBUSAT 2
1 41338U 16012B   19182.86613736  .00000218  00000-0  10180-4 0  9995
2 41338  31.0039  61.0438 0013968 233.9664 125.9677 15.00154484184898
CHUBUSAT 3
1 41339U 16012C   19183.03367188  .00000178  00000-0  70205-5 0  9993
2 41339  31.0112  58.0566 0013796 242.9596 116.9632 15.00329854184911
OUFTI-1
1 41458U 16025C   19183.34373918  .00000221  00000-0  15957-4 0  9992
2 41458  98.1019 270.8801 0165412 311.5431  47.1705 15.05822078174627
E-STAR-2
1 41459U 16025D   19183.29695557  .00000701  00000-0  40489-4 0  9994
2 41459  98.1036 270.4875 0166251 312.9901  45.7495 15.05468445174593
AAUSAT 4
1 41460U 16025E   19183.18936018  .00001029  00000-0  55922-4 0  9996
2 41460  98.0954 271.6458 0157052 305.9303  52.7485 15.07346229174707
NUSAT 1
1 41557U 16033B   19183.54142143  .00000786  00000-0  32207-4 0  9990
2 41557  97.4182 270.9606 0012270 246.0424 113.9531 15.27222978172209
BEESAT 4
1 41619U 16040W   19183.17988711  .00000874  00000-0  39922-4 0  9994
2 41619  97.3667 245.1521 0010710 345.0265  15.0653 15.23140271155912
PRATHAM
1 41783U 16059A   19183.14133268  .00000021  00000-0  13414-4 0  9994
2 41783  98.0665 242.4258 0033080 344.0629  15.9529 14.62997184147518
ALSAT 1N
1 41789U 16059G   19183.39187266  .00000017  00000-0  12338-4 0  9993
2 41789  98.0689 244.6947 0027557 333.1897  26.7879 14.64246645147651
NAYIF 1
1 42017U 17008BX  19183.27529437  .00000982  00000-0  41551-4 0  9990
2 42017  97.4026 250.2294 0007819 115.3954 244.8095 15.25542433131990
MAX VALIER SAT
1 42778U 17036P   19182.74329299  .00000607  00000-0  29538-4 0  9995
2 42778  97.3535 240.1222 0012664 170.5691 189.5785 15.22022774112226
